[[{"header":{"parameterUnit":"m.s-1","parameterCategory":2,"la1":30.2991,"la2":30.254,"lo1":-89.0895,"lo2":-89.0444,"dy":0.0017,"dx":0.0017,"nx":28,"ny":28,"refTime":"2023-11-01T09:00:00:Z","depth":"0","parameterNumber":2,"parameterNumberName":"U-component_of_CURRENTS"},"data":[0,0,0,0,0,0,0,0,0,0,0,0,0,0,0,0,0,0,0,0,0,0,0,0,0,0,0,0,0,0,0,0,0,0,0,0,0,0,0,0,0,0,0,0,0,0,0,0,0,0,0,0,0,0,0,0,0,0,0.2539,0.254,0,0.254,0.2539,0.2538,0.2461,0.246,0.246,0.2459,0.2435,0.2436,0.2436,0,0,0,0,0,0,0,0,0,0,0,0,0,0.2492,0.2492,0.2539,0.2541,0.2542,0.254,0.2539,0.2537,0.2461,0.246,0.246,0.2459,0.2435,0.2436,0.2436,0,0,0,0,0,0,0,0,0,0,0,0,0,0.2492,0.2492,0.2539,0.2514,0.2512,0.254,0.2539,0.2537,0.2462,0.246,0.2459,0.2458,0.2435,0.2436,0.2436,0.2459,0,0,0.2436,0.2436,0,0,0,0,0,0,0,0,0.2492,0.2492,0.2516,0.2516,0.2514,0.2511,0.2514,0.2515,0.2462,0.2466,0.2459,0.2458,0.2468,0.2466,0.2449,0.2458,0.2457,0.2436,0.2436,0.2436,0.2436,0,0,0,0,0,0,0,0.2492,0.2492,0.2525,0.2518,0.2517,0.251,0.2507,0.2513,0.2463,0.2466,0.2464,0.2486,0.2466,0.2449,0.2448,0.2457,0.2436,0.2436,0.2436,0.2436,0.2489,0.249,0,0,0,0,0,0,0.252,0.2492,0.2526,0.2527,0.2515,0.2513,0.2509,0.2502,0.2463,0.246,0.2487,0.2483,0.245,0.2448,0.2447,0.2484,0.2436,0.2436,0.2436,0.2488,0.2489,0.2491,0,0,0,0,0,0,0.2518,0.2521,0.2526,0.2522,0.2524,0.2516,0.2509,0.2503,0.2486,0.2482,0.2475,0.2478,0.2449,0.2447,0.2466,0.2482,0.2436,0.2436,0.2486,0.2488,0.249,0.2551,0,0,0,0,0,0,0.2516,0.252,0.2525,0.2523,0.2525,0.2527,0.2511,0.2504,0.2509,0.2502,0.2473,0.2469,0.2448,0.2466,0.2466,0.2481,0.2437,0.2484,0.2487,0.2489,0.2547,0.2555,0.2561,0,0,0,0,0,0.2513,0.2517,0.2524,0.253,0.2531,0.2529,0.2526,0.2509,0.251,0.249,0.2497,0.2469,0.2481,0.2468,0.2468,0.2483,0.2483,0.2486,0.2489,0.2544,0.2553,0.2561,0,0,0,0,0,0,0.2489,0.2511,0.2518,0.2526,0.2528,0.252,0.252,0.2518,0.2506,0.2519,0.2493,0.249,0.2508,0.2496,0.2482,0.2506,0.2475,0.2479,0.2517,0.2526,0.2532,0.2527,0.2437,0,0,0,0,0,0.2497,0.2497,0.252,0.2519,0.2531,0.253,0.2533,0.2535,0.2535,0.2526,0.2502,0.2504,0.2521,0.2524,0.252,0.2544,0.2548,0.2552,0.2559,0.2565,0.2561,0.2596,0.2606,0.2501,0.2501,0.25,0,0,0.249,0.2502,0.2503,0.2516,0.2518,0.2532,0.2522,0.254,0.2553,0.2533,0.2523,0.2525,0.2533,0.2551,0.2558,0.2544,0.2602,0.2569,0.2574,0.2566,0.2601,0.2611,0.262,0.2503,0.2502,0.2502,0,0,0.2493,0.2487,0.2508,0.2505,0.254,0.2541,0.2552,0.2554,0.2553,0.2577,0.2567,0.2582,0.2586,0.2587,0.2599,0.2648,0.2636,0.2646,0.2679,0.2715,0.2723,0.2731,0.277,0.278,0.2652,0.2652,0.2652,0,0.2492,0.2515,0.251,0.2527,0.2536,0.2547,0.2573,0.2576,0.2578,0.2603,0.2583,0.2614,0.2605,0.2655,0.2662,0.2662,0.2683,0.2648,0.2724,0.2731,0.2738,0.2775,0.2786,0.2655,0.2655,0.2655,0.2654,0,0.2523,0.2533,0.2538,0.256,0.2559,0.258,0.2601,0.261,0.2627,0.2643,0.2686,0.2678,0.2698,0.2698,0.2696,0.2743,0.2745,0.2728,0.2702,0.2753,0.2789,0.2799,0.266,0.2659,0.2658,0.2657,0,0,0.2549,0.2564,0.2568,0.2582,0.2587,0.2595,0.2625,0.2671,0.2718,0.2716,0.2763,0.2779,0.2779,0.279,0.2783,0.2801,0.2867,0.2787,0.2787,0.2824,0.2959,0.2979,0.2991,0.2871,0.2872,0.2874,0.2972,0,0.2586,0.2619,0.2621,0.2643,0.2659,0.2664,0.2683,0.2722,0.2758,0.2793,0.282,0.2851,0.2817,0.2836,0.2853,0.2862,0.2895,0.2843,0.2904,0.2906,0.2916,0.3004,0.2996,0.3085,0.2982,0.2984,0.2985,0,0.2629,0.2647,0.2674,0.2694,0.2707,0.2718,0.2771,0.2801,0.2862,0.2896,0.2937,0.2941,0.2972,0.2928,0.2981,0.2954,0.2963,0.2962,0.2966,0.2965,0.2944,0.3014,0.3107,0.3081,0.3,0.2999,0.2998,0,0.2641,0.2684,0.2705,0.2702,0.2727,0.2757,0.2786,0.2838,0.2878,0.296,0.2989,0.3037,0.3059,0.3074,0.307,0.3038,0.3125,0.3084,0.3114,0.3116,0.311,0.3108,0.318,0.313,0.313,0.3129,0.3129,0,0.2653,0.2673,0.2718,0.2718,0.2765,0.2782,0.2842,0.2889,0.2953,0.3002,0.3037,0.3081,0.3095,0.3134,0.3121,0.3166,0.3179,0.3142,0.3151,0.3133,0.3132,0.3106,0.3049,0.3133,0.3132,0.3131,0.3131,0,0.2616,0.2649,0.268,0.2736,0.2755,0.2786,0.2844,0.2889,0.2963,0.3025,0.3046,0.3131,0.3203,0.3215,0.3261,0.3244,0.322,0.328,0.3261,0.3267,0.3254,0.3199,0.3161,0.3051,0.3337,0.3338,0.3339,0,0.2579,0.2595,0.2668,0.2687,0.2707,0.2759,0.2785,0.2875,0.2918,0.3051,0.3074,0.3181,0.3243,0.3342,0.3367,0.34,0.3276,0.3386,0.3313,0.3279,0.3226,0.31,0.2998,0.3338,0.3339,0.3339,0.334,0,0.2514,0.2555,0.2581,0.263,0.2667,0.2703,0.276,0.2793,0.2904,0.2976,0.3088,0.3163,0.3308,0.3368,0.3435,0.3444,0.3287,0.3402,0.3376,0.3248,0.3107,0.2997,0.3245,0.3347,0.3346,0.3346,0.3345,0.3345,0.2459,0.2473,0.2526,0.2566,0.2601,0.2634,0.2646,0.2718,0.2793,0.2889,0.3036,0.3154,0.3334,0.3452,0.3432,0.3464,0.3341,0.3406,0.3352,0.3235,0.3099,0.3367,0.3467,0.3467,0.3468,0.3468,0.3468,0,0.2393,0.2427,0.2456,0.2503,0.2506,0.2559,0.2608,0.2613,0.2671,0.2814,0.2922,0.3166,0.3299,0.3407,0.3496,0.3415,0.3278,0.3366,0.3193,0.3093,0.3378,0.3351,0.3421,0.3421,0.3421,0.3421,0.3421,0.3421,0.236,0.2374,0.2406,0.2402,0.2422,0.2403,0.2418,0.2447,0.2528,0.2644,0.2784,0.2936,0.3197,0.348,0.349,0.3427,0.3146,0.3132,0.3005,0.3252,0.3251,0.325,0.3215,0.3255,0.3255,0.2672,0.2668,0.2664]},{"header":{"parameterUnit":"m.s-1","parameterCategory":2,"la1":30.2991,"la2":30.254,"lo1":-89.0895,"lo2":-89.0444,"dy":0.0017,"dx":0.0017,"nx":28,"ny":28,"refTime":"2023-11-01T09:00:00:Z","depth":"0","parameterNumber":3,"parameterNumberName":"V-component_of_CURRENTS"},"data":[0,0,0,0,0,0,0,0,0,0,0,0,0,0,0,0,0,0,0,0,0,0,0,0,0,0,0,0,0,0,0,0,0,0,0,0,0,0,0,0,0,0,0,0,0,0,0,0,0,0,0,0,0,0,0,0,0,0,-0.0462,-0.0463,0,-0.0498,-0.0496,-0.0495,-0.0523,-0.0525,-0.0527,-0.0529,-0.0697,-0.07,-0.0702,0,0,0,0,0,0,0,0,0,0,0,0,0,-0.0418,-0.0417,-0.0461,-0.0464,-0.0466,-0.0498,-0.0496,-0.0495,-0.0523,-0.0525,-0.0528,-0.053,-0.0696,-0.0699,-0.0703,0,0,0,0,0,0,0,0,0,0,0,0,0,-0.0426,-0.0417,-0.0461,-0.0497,-0.0502,-0.0498,-0.0496,-0.0495,-0.0522,-0.0525,-0.0528,-0.0531,-0.0695,-0.0699,-0.0703,-0.0669,0,0,-0.0715,-0.0717,0,0,0,0,0,0,0,0,-0.0426,-0.0425,-0.049,-0.0495,-0.05,-0.0525,-0.0544,-0.0566,-0.0522,-0.0495,-0.0529,-0.0532,-0.0662,-0.0668,-0.0641,-0.0677,-0.0684,-0.0715,-0.0718,-0.072,-0.0721,0,0,0,0,0,0,0,-0.0425,-0.0424,-0.0457,-0.0492,-0.0499,-0.0513,-0.0515,-0.0546,-0.055,-0.0498,-0.0504,-0.0537,-0.0663,-0.0636,-0.0646,-0.0687,-0.0715,-0.0719,-0.0721,-0.0723,-0.0793,-0.0792,0,0,0,0,0,0,-0.0454,-0.0423,-0.0456,-0.046,-0.049,-0.0513,-0.0515,-0.0499,-0.0547,-0.0561,-0.0534,-0.0538,-0.0628,-0.0641,-0.0652,-0.0697,-0.072,-0.0723,-0.0726,-0.0793,-0.0793,-0.0792,0,0,0,0,0,0,-0.0452,-0.0454,-0.0455,-0.046,-0.0464,-0.0512,-0.0494,-0.0499,-0.0483,-0.0577,-0.059,-0.0519,-0.0631,-0.0647,-0.0701,-0.0702,-0.0725,-0.0729,-0.0794,-0.0793,-0.0792,-0.0737,0,0,0,0,0,0,-0.0449,-0.0451,-0.0434,-0.046,-0.0466,-0.0458,-0.0493,-0.0498,-0.0508,-0.0512,-0.0568,-0.0585,-0.0634,-0.0695,-0.0705,-0.0708,-0.0732,-0.0795,-0.0794,-0.0793,-0.0739,-0.0734,-0.073,0,0,0,0,0,-0.0446,-0.0422,-0.0431,-0.0437,-0.0443,-0.0459,-0.0459,-0.0493,-0.0504,-0.0487,-0.0542,-0.0584,-0.0696,-0.0698,-0.071,-0.0714,-0.0795,-0.0794,-0.0793,-0.0742,-0.0735,-0.073,0,0,0,0,0,0,-0.0385,-0.0425,-0.0436,-0.042,-0.0444,-0.0472,-0.0473,-0.0482,-0.0497,-0.0527,-0.0578,-0.0598,-0.0648,-0.0679,-0.0679,-0.0729,-0.0751,-0.0752,-0.0708,-0.0703,-0.0698,-0.0669,-0.0735,0,0,0,0,0,-0.0367,-0.0357,-0.0401,-0.0385,-0.0402,-0.0426,-0.0434,-0.0467,-0.0502,-0.0509,-0.0531,-0.0583,-0.0642,-0.0674,-0.0718,-0.0739,-0.0754,-0.0748,-0.0744,-0.0739,-0.0723,-0.0741,-0.0736,-0.0788,-0.0788,-0.0788,0,0,-0.035,-0.0364,-0.0364,-0.0373,-0.0392,-0.0392,-0.0432,-0.0464,-0.047,-0.0531,-0.0518,-0.0568,-0.0645,-0.068,-0.0703,-0.0714,-0.0732,-0.0738,-0.0734,-0.0719,-0.0739,-0.0734,-0.0729,-0.0787,-0.0787,-0.0788,0,0,-0.0333,-0.0313,-0.0322,-0.032,-0.0373,-0.038,-0.0387,-0.0409,-0.043,-0.0446,-0.05,-0.0542,-0.059,-0.0641,-0.0683,-0.0671,-0.0707,-0.0687,-0.0642,-0.0659,-0.0655,-0.0651,-0.0661,-0.0659,-0.0684,-0.0684,-0.0684,0,-0.032,-0.0309,-0.0325,-0.0322,-0.0324,-0.0366,-0.037,-0.0381,-0.041,-0.0428,-0.0451,-0.0506,-0.0573,-0.0628,-0.0633,-0.0662,-0.0671,-0.0662,-0.0652,-0.0649,-0.0646,-0.0657,-0.0655,-0.0681,-0.0681,-0.0682,-0.0682,0,-0.0317,-0.0293,-0.0293,-0.0288,-0.028,-0.0292,-0.0328,-0.0324,-0.0347,-0.0363,-0.0408,-0.0474,-0.0505,-0.0537,-0.0592,-0.0605,-0.0617,-0.0646,-0.0665,-0.0638,-0.0651,-0.065,-0.0677,-0.0678,-0.0679,-0.0679,0,0,-0.034,-0.0304,-0.0302,-0.0275,-0.0269,-0.026,-0.0271,-0.0292,-0.0285,-0.032,-0.031,-0.0408,-0.042,-0.0465,-0.0523,-0.0544,-0.0546,-0.0579,-0.0582,-0.0584,-0.0573,-0.0602,-0.0605,-0.0571,-0.0571,-0.057,-0.0589,0,-0.0345,-0.0302,-0.0298,-0.0243,-0.0217,-0.0228,-0.0209,-0.0229,-0.0249,-0.0232,-0.0328,-0.034,-0.0404,-0.042,-0.045,-0.0524,-0.054,-0.0537,-0.0602,-0.0604,-0.063,-0.0604,-0.0632,-0.0653,-0.0589,-0.0588,-0.0588,0,-0.035,-0.0315,-0.0261,-0.0195,-0.0192,-0.0157,-0.0121,-0.0122,-0.0139,-0.0162,-0.0188,-0.0236,-0.0286,-0.0335,-0.0424,-0.0417,-0.0481,-0.0534,-0.0537,-0.058,-0.0631,-0.0671,-0.0654,-0.0872,-0.0587,-0.0587,-0.0587,0,-0.0318,-0.0282,-0.0223,-0.0193,-0.0135,-0.0124,-0.0103,-0.0094,-0.0085,-0.0099,-0.0083,-0.0149,-0.0172,-0.0258,-0.0378,-0.0397,-0.0462,-0.0508,-0.059,-0.0593,-0.0637,-0.0645,-0.0833,-0.0552,-0.0552,-0.0552,-0.0551,0,-0.0283,-0.0238,-0.0197,-0.0146,-0.0089,-0.0071,-0.0014,-0.0013,0.0005,0.0048,-0.0028,-0.0009,-0.015,-0.0214,-0.0331,-0.045,-0.0427,-0.0568,-0.0597,-0.0619,-0.0625,-0.0832,-0.0934,-0.0552,-0.0552,-0.0552,-0.0552,0,-0.0223,-0.0196,-0.0123,-0.0072,-0.0054,-0.0003,0.0056,0.0094,0.01,0.0155,0.0154,0.0102,0.0017,-0.0128,-0.0264,-0.0383,-0.0628,-0.0551,-0.0564,-0.0594,-0.0886,-0.0981,-0.1157,-0.1274,-0.0644,-0.0645,-0.0646,0,-0.018,-0.0128,-0.0054,-0.0013,0.0016,0.008,0.0125,0.0147,0.0194,0.023,0.0263,0.0199,0.0168,-0.0047,-0.0268,-0.0467,-0.0656,-0.0632,-0.0683,-0.0897,-0.1025,-0.1097,-0.1189,-0.072,-0.0721,-0.0722,-0.0723,0,-0.0104,-0.0073,-0.0014,0.0064,0.0123,0.0189,0.0252,0.0305,0.034,0.0383,0.0426,0.0404,0.0205,-0.0007,-0.0288,-0.045,-0.081,-0.0659,-0.0883,-0.1095,-0.1182,-0.131,-0.0711,-0.0731,-0.0731,-0.073,-0.0729,-0.0729,-0.0054,-0.0005,0.0062,0.013,0.0198,0.0271,0.0326,0.0396,0.0474,0.0529,0.0534,0.0511,0.0212,-0.0178,-0.0417,-0.0904,-0.0886,-0.1065,-0.1158,-0.1207,-0.1344,-0.0758,-0.0814,-0.0814,-0.0814,-0.0813,-0.0813,0,-0.0008,0.0037,0.0111,0.0186,0.0253,0.0281,0.0386,0.043,0.0514,0.0581,0.0609,0.0433,0.0045,-0.0363,-0.0962,-0.133,-0.1479,-0.155,-0.1683,-0.175,-0.1233,-0.1264,-0.1418,-0.1418,-0.1418,-0.1418,-0.1418,-0.1417,0.0012,0.0085,0.0111,0.0201,0.0255,0.0346,0.0402,0.0463,0.0519,0.054,0.0515,0.0471,0.0071,-0.0867,-0.1655,-0.1834,-0.2147,-0.2176,-0.2328,-0.2007,-0.197,-0.1935,-0.1991,-0.2296,-0.2297,-0.2826,-0.2832,-0.2836]}],[{"header":{"parameterUnit":"m.s-1","parameterCategory":2,"la1":30.2991,"la2":30.254,"lo1":-89.0895,"lo2":-89.0444,"dy":0.0017,"dx":0.0017,"nx":28,"ny":28,"refTime":"2023-11-01T09:00:00:Z","depth":"2","parameterNumber":2,"parameterNumberName":"U-component_of_CURRENTS"},"data":[0,0,0,0,0,0,0,0,0,0,0,0,0,0,0,0,0,0,0,0,0,0,0,0,0,0,0,0,0,0,0,0,0,0,0,0,0,0,0,0,0,0,0,0,0,0,0,0,0,0,0,0,0,0,0,0,0,0,0.2542,0.2543,0,0.2534,0.2533,0.2532,0.2457,0.2456,0.2456,0.2455,0.244,0.2441,0.2441,0,0,0,0,0,0,0,0,0,0,0,0,0,0.2497,0.2497,0.2542,0.2543,0.2544,0.2535,0.2533,0.2531,0.2457,0.2456,0.2455,0.2455,0.244,0.2441,0.2441,0,0,0,0,0,0,0,0,0,0,0,0,0,0.2492,0.2497,0.2542,0.2517,0.2515,0.2535,0.2533,0.2531,0.2457,0.2456,0.2455,0.2454,0.244,0.2441,0.2441,0.2458,0,0,0.2441,0.2441,0,0,0,0,0,0,0,0,0.2492,0.2492,0.2519,0.2518,0.2517,0.2508,0.2513,0.2511,0.2457,0.2464,0.2455,0.2454,0.2473,0.247,0.245,0.2458,0.2457,0.2441,0.2441,0.2442,0.2442,0,0,0,0,0,0,0,0.2493,0.2492,0.2524,0.2521,0.252,0.2509,0.2505,0.2511,0.2462,0.2463,0.2461,0.2484,0.247,0.245,0.2449,0.2457,0.2441,0.2442,0.2442,0.2442,0.2496,0.2497,0,0,0,0,0,0,0.2523,0.2492,0.2525,0.2525,0.2519,0.2511,0.2507,0.25,0.2462,0.2459,0.2485,0.2481,0.245,0.2449,0.2449,0.2489,0.2442,0.2442,0.2442,0.2495,0.2496,0.2498,0,0,0,0,0,0,0.2522,0.2525,0.2525,0.2522,0.2523,0.2514,0.2507,0.2501,0.248,0.2481,0.2475,0.2472,0.2449,0.2448,0.2472,0.2488,0.2442,0.2442,0.2493,0.2495,0.2497,0.2558,0,0,0,0,0,0,0.252,0.2523,0.2529,0.2523,0.2525,0.2522,0.2509,0.2502,0.2503,0.2497,0.2469,0.2466,0.2448,0.2472,0.2472,0.2487,0.2442,0.2491,0.2494,0.2496,0.2554,0.2562,0.2568,0,0,0,0,0,0.2518,0.252,0.2528,0.2533,0.2531,0.2523,0.252,0.2503,0.2504,0.2482,0.2493,0.2467,0.2487,0.2474,0.2473,0.2489,0.249,0.2493,0.2496,0.2551,0.256,0.2568,0,0,0,0,0,0,0.2493,0.2515,0.2522,0.2528,0.2528,0.2516,0.2514,0.251,0.2498,0.2515,0.2491,0.2489,0.2511,0.2499,0.2485,0.2513,0.2482,0.2485,0.2523,0.2532,0.2539,0.2533,0.2442,0,0,0,0,0,0.2501,0.2499,0.2521,0.2518,0.2531,0.2526,0.2527,0.2529,0.2529,0.252,0.2498,0.2504,0.2523,0.2528,0.2526,0.2551,0.2555,0.2559,0.2566,0.2572,0.2568,0.2603,0.2613,0.2508,0.2508,0.2507,0,0,0.2492,0.2504,0.2503,0.2514,0.2515,0.2529,0.2518,0.2534,0.2547,0.2529,0.2521,0.2525,0.2535,0.2556,0.2565,0.255,0.2609,0.2576,0.2581,0.2573,0.2607,0.2617,0.2626,0.251,0.2509,0.2509,0,0,0.2492,0.2485,0.2506,0.2502,0.2537,0.2538,0.2548,0.2548,0.2548,0.2573,0.2566,0.2583,0.2589,0.2593,0.2606,0.2655,0.2643,0.2654,0.2686,0.2721,0.273,0.2738,0.2775,0.2786,0.2659,0.2659,0.2659,0,0.249,0.2512,0.2506,0.2524,0.2534,0.2544,0.2572,0.2573,0.2575,0.26,0.2582,0.2615,0.2608,0.266,0.2669,0.2669,0.269,0.2655,0.273,0.2738,0.2745,0.2781,0.2792,0.2663,0.2662,0.2662,0.2662,0,0.2518,0.2529,0.2534,0.2558,0.2556,0.2577,0.2601,0.261,0.2629,0.2643,0.2688,0.2683,0.2703,0.2703,0.2703,0.275,0.2751,0.2735,0.2708,0.2759,0.2794,0.2804,0.2667,0.2666,0.2665,0.2664,0,0,0.2545,0.2559,0.2564,0.2579,0.2586,0.2593,0.2626,0.2673,0.2721,0.272,0.2766,0.2786,0.2784,0.2797,0.279,0.2808,0.2873,0.2793,0.2793,0.2829,0.2963,0.2981,0.2994,0.2876,0.2878,0.2879,0.2975,0,0.2583,0.2617,0.2618,0.2642,0.266,0.2666,0.2686,0.2725,0.2763,0.2797,0.2826,0.2857,0.2824,0.2843,0.286,0.2867,0.29,0.2849,0.2909,0.291,0.2919,0.3006,0.2649,0.2706,0.2985,0.2987,0.2988,0,0.2627,0.2645,0.2675,0.2695,0.271,0.2721,0.2775,0.2806,0.2867,0.2902,0.2942,0.2946,0.2978,0.2934,0.2985,0.296,0.2968,0.2967,0.297,0.2968,0.2947,0.2696,0.2713,0.3004,0.3003,0.3002,0.3001,0,0.264,0.2685,0.2708,0.2705,0.273,0.2761,0.279,0.2843,0.2883,0.2965,0.2994,0.3042,0.3063,0.3078,0.3073,0.3042,0.3127,0.3087,0.3114,0.3116,0.2812,0.2785,0.3131,0.3131,0.3131,0.313,0.313,0,0.2654,0.2675,0.2721,0.2721,0.2769,0.2787,0.2847,0.2894,0.2958,0.3007,0.3042,0.3085,0.3099,0.3137,0.3124,0.3167,0.318,0.3141,0.3151,0.2828,0.2802,0.3047,0.3036,0.3134,0.3133,0.3133,0.3132,0,0.2619,0.2652,0.2683,0.2741,0.276,0.2791,0.2849,0.2894,0.2968,0.3029,0.305,0.3134,0.3204,0.3216,0.3261,0.3243,0.3269,0.3277,0.2909,0.2876,0.322,0.3211,0.3328,0.3329,0.3331,0.3332,0.3333,0,0.2582,0.2598,0.2672,0.2691,0.2711,0.2764,0.2789,0.2879,0.2922,0.3055,0.3076,0.3182,0.3222,0.3318,0.3248,0.3251,0.3341,0.3016,0.2896,0.3248,0.3245,0.3234,0.3223,0.2509,0.2503,0.2498,0.2494,0,0.2517,0.2557,0.2584,0.2633,0.267,0.2707,0.2764,0.2796,0.2907,0.2952,0.3063,0.3116,0.3175,0.3022,0.3049,0.3013,0.2986,0.2929,0.3369,0.2548,0.2493,0.2485,0.2498,0.2452,0.2456,0.2459,0.2461,0.2463,0.2462,0.2475,0.2529,0.2569,0.2604,0.2636,0.2649,0.2625,0.2664,0.2626,0.2868,0.2787,0.2823,0.2649,0.2609,0.2579,0.2795,0.2679,0.2685,0.2698,0.262,0.2574,0.2532,0.2537,0.2541,0.2544,0.2547,0,0.2364,0.2429,0.2459,0.2506,0.2462,0.2561,0.2611,0.25,0.2403,0.2374,0.2355,0.2172,0.2059,0.2142,0.1978,0.2054,0.1937,0.2044,0.1815,0.186,0.1899,0.1772,0.1464,0.1461,0.1459,0.1456,0,0,0.2323,0.2318,0.2349,0.2315,0.2368,0.2285,0.2299,0.2118,0.2018,0.1799,0.1705,0.1753,0.1975,0.1604,0.1622,0.1515,0.1667,0.1464,0.2319,0.2085,0.212,0.2251,0.2107,0,0,0,0,0]},{"header":{"parameterUnit":"m.s-1","parameterCategory":2,"la1":30.2991,"la2":30.254,"lo1":-89.0895,"lo2":-89.0444,"dy":0.0017,"dx":0.0017,"nx":28,"ny":28,"refTime":"2023-11-01T09:00:00:Z","depth":"2","parameterNumber":3,"parameterNumberName":"V-component_of_CURRENTS"},"data":[0,0,0,0,0,0,0,0,0,0,0,0,0,0,0,0,0,0,0,0,0,0,0,0,0,0,0,0,0,0,0,0,0,0,0,0,0,0,0,0,0,0,0,0,0,0,0,0,0,0,0,0,0,0,0,0,0,0,-0.0418,-0.0419,0,-0.0442,-0.0441,-0.0439,-0.047,-0.0472,-0.0474,-0.0476,-0.0656,-0.0659,-0.0661,0,0,0,0,0,0,0,0,0,0,0,0,0,-0.0379,-0.0378,-0.0418,-0.042,-0.0422,-0.0442,-0.0441,-0.0439,-0.0469,-0.0472,-0.0475,-0.0477,-0.0655,-0.0658,-0.0662,0,0,0,0,0,0,0,0,0,0,0,0,0,-0.038,-0.0377,-0.0417,-0.0454,-0.0458,-0.0442,-0.044,-0.0439,-0.0469,-0.0472,-0.0475,-0.0479,-0.0654,-0.0658,-0.0662,-0.0619,0,0,-0.0674,-0.0676,0,0,0,0,0,0,0,0,-0.038,-0.0379,-0.0446,-0.0451,-0.0457,-0.0473,-0.0494,-0.0513,-0.0468,-0.0444,-0.0476,-0.048,-0.062,-0.0627,-0.0594,-0.0627,-0.0635,-0.0675,-0.0677,-0.0679,-0.068,0,0,0,0,0,0,0,-0.0379,-0.0378,-0.0407,-0.0449,-0.0455,-0.0464,-0.0466,-0.0495,-0.05,-0.0446,-0.0454,-0.0486,-0.0622,-0.0589,-0.0599,-0.0638,-0.0675,-0.0678,-0.0681,-0.0682,-0.0753,-0.0752,0,0,0,0,0,0,-0.0413,-0.0377,-0.0407,-0.041,-0.0448,-0.0463,-0.0464,-0.0449,-0.0497,-0.0512,-0.0483,-0.0488,-0.0581,-0.0594,-0.0606,-0.0657,-0.0679,-0.0683,-0.0685,-0.0753,-0.0752,-0.0752,0,0,0,0,0,0,-0.041,-0.0412,-0.0406,-0.0413,-0.0416,-0.0463,-0.0443,-0.0448,-0.0428,-0.0527,-0.0541,-0.0465,-0.0584,-0.06,-0.0661,-0.0662,-0.0684,-0.0688,-0.0754,-0.0753,-0.0752,-0.0697,0,0,0,0,0,0,-0.0408,-0.041,-0.0392,-0.0414,-0.0417,-0.0403,-0.0442,-0.0446,-0.0453,-0.0458,-0.0515,-0.0534,-0.0588,-0.0654,-0.0665,-0.0668,-0.0691,-0.0754,-0.0753,-0.0752,-0.07,-0.0695,-0.069,0,0,0,0,0,-0.0405,-0.038,-0.0389,-0.0395,-0.0395,-0.0404,-0.0402,-0.0437,-0.0449,-0.0429,-0.0489,-0.0533,-0.0655,-0.0657,-0.0669,-0.0674,-0.0755,-0.0754,-0.0752,-0.0702,-0.0696,-0.069,0,0,0,0,0,0,-0.0346,-0.0383,-0.0394,-0.0377,-0.0396,-0.0418,-0.0417,-0.0423,-0.0439,-0.0474,-0.0527,-0.0549,-0.0604,-0.0636,-0.0636,-0.0689,-0.0711,-0.0712,-0.0668,-0.0662,-0.0658,-0.0629,-0.0695,0,0,0,0,0,-0.0327,-0.0314,-0.0356,-0.0336,-0.0355,-0.0373,-0.0378,-0.0412,-0.0447,-0.0453,-0.0477,-0.0534,-0.0596,-0.0631,-0.0678,-0.0699,-0.0713,-0.0708,-0.0704,-0.0699,-0.0683,-0.07,-0.0695,-0.0748,-0.0748,-0.0748,0,0,-0.0306,-0.032,-0.0316,-0.0323,-0.034,-0.034,-0.0378,-0.0409,-0.0414,-0.0477,-0.0467,-0.0519,-0.0599,-0.0638,-0.0663,-0.0674,-0.0692,-0.0698,-0.0694,-0.0679,-0.0698,-0.0693,-0.0688,-0.0747,-0.0747,-0.0747,0,0,-0.0283,-0.0264,-0.0271,-0.0268,-0.0322,-0.0328,-0.0335,-0.0354,-0.0376,-0.0393,-0.045,-0.0494,-0.0545,-0.0599,-0.0643,-0.0631,-0.0667,-0.0647,-0.0602,-0.0619,-0.0615,-0.0611,-0.0621,-0.0618,-0.0644,-0.0644,-0.0644,0,-0.027,-0.0258,-0.0271,-0.027,-0.0273,-0.0314,-0.032,-0.033,-0.0357,-0.0376,-0.0401,-0.0458,-0.0528,-0.0586,-0.0593,-0.0621,-0.063,-0.0622,-0.0612,-0.0609,-0.0606,-0.0617,-0.0615,-0.0641,-0.0641,-0.0642,-0.0642,0,-0.0262,-0.024,-0.0239,-0.0237,-0.0228,-0.0241,-0.028,-0.0276,-0.0301,-0.0314,-0.0363,-0.0431,-0.0462,-0.0495,-0.0552,-0.0565,-0.0578,-0.0605,-0.0624,-0.0597,-0.0611,-0.061,-0.0637,-0.0638,-0.0639,-0.064,0,0,-0.0285,-0.0249,-0.0248,-0.0223,-0.022,-0.021,-0.0224,-0.0247,-0.0241,-0.0277,-0.0266,-0.0368,-0.0379,-0.0425,-0.0484,-0.0504,-0.0506,-0.0539,-0.0541,-0.0544,-0.0531,-0.0562,-0.0564,-0.053,-0.053,-0.0529,-0.0548,0,-0.0292,-0.0252,-0.0247,-0.0194,-0.0172,-0.0184,-0.0165,-0.0186,-0.0207,-0.0189,-0.0287,-0.03,-0.0364,-0.0381,-0.041,-0.0484,-0.05,-0.0497,-0.0561,-0.0562,-0.059,-0.0563,-0.0472,-0.0483,-0.0548,-0.0547,-0.0547,0,-0.0299,-0.0266,-0.0215,-0.0149,-0.0148,-0.0113,-0.008,-0.0081,-0.0098,-0.0122,-0.0148,-0.0196,-0.0246,-0.0295,-0.0383,-0.0376,-0.044,-0.0493,-0.0496,-0.0539,-0.0591,-0.0522,-0.0479,-0.0546,-0.0546,-0.0546,-0.0546,0,-0.0271,-0.0239,-0.0181,-0.0151,-0.0093,-0.0083,-0.0063,-0.0053,-0.0046,-0.0059,-0.0043,-0.0109,-0.0132,-0.0218,-0.0337,-0.0356,-0.042,-0.0466,-0.0549,-0.0552,-0.0494,-0.0493,-0.0509,-0.0509,-0.0509,-0.0509,-0.0509,0,-0.0241,-0.0197,-0.0156,-0.0106,-0.005,-0.0032,0.0024,0.0025,0.0044,0.0087,0.0011,0.003,-0.011,-0.0174,-0.029,-0.0409,-0.0386,-0.0526,-0.0555,-0.0474,-0.0471,-0.0543,-0.0547,-0.051,-0.051,-0.051,-0.0509,0,-0.0183,-0.0156,-0.0085,-0.0034,-0.0016,0.0035,0.0094,0.0133,0.0138,0.0194,0.0193,0.0142,0.0057,-0.0088,-0.0224,-0.0342,-0.0462,-0.051,-0.0404,-0.0421,-0.0593,-0.0594,-0.0602,-0.0603,-0.0604,-0.0605,-0.0605,0,-0.014,-0.009,-0.0016,0.0025,0.0053,0.0117,0.0163,0.0185,0.0233,0.0269,0.0302,0.0238,0.0215,0.0,-0.0184,-0.0374,-0.0453,-0.0467,-0.0502,-0.0573,-0.0601,-0.06,-0.0599,-0.0397,-0.0396,-0.0395,-0.0394,0,-0.0065,-0.0034,0.0025,0.0102,0.016,0.0227,0.029,0.0343,0.0378,0.0439,0.0482,0.0467,0.0292,0.0142,-0.0127,-0.0261,-0.0436,-0.046,-0.0536,-0.0403,-0.0386,-0.0412,-0.0416,-0.0387,-0.0387,-0.0388,-0.0388,-0.0389,-0.0015,0.0034,0.01,0.0168,0.0236,0.0309,0.0364,0.0525,0.0631,0.0774,0.0665,0.0702,0.0471,0.0195,-0.0064,-0.0343,-0.0361,-0.0474,-0.0474,-0.0475,-0.0463,-0.0451,-0.046,-0.0461,-0.0462,-0.0463,-0.0463,0,0.0084,0.0076,0.015,0.0224,0.0351,0.0319,0.0424,0.0602,0.0827,0.0929,0.1015,0.0816,0.0623,0.0319,-0.005,-0.0314,-0.031,-0.0428,-0.0358,-0.0362,-0.0367,-0.0349,-0.0316,-0.0317,-0.0318,-0.0318,0,0,0.0119,0.0219,0.0245,0.0363,0.0365,0.0557,0.0616,0.0885,0.1053,0.124,0.123,0.1184,0.0749,0.0507,0.016,-0.0084,-0.0169,-0.0129,-0.0211,-0.0088,-0.0091,-0.035,-0.0322,0,0,0,0,0]}],[{"header":{"parameterUnit":"m.s-1","parameterCategory":2,"la1":30.2991,"la2":30.254,"lo1":-89.0895,"lo2":-89.0444,"dy":0.0017,"dx":0.0017,"nx":28,"ny":28,"refTime":"2023-11-01T09:00:00:Z","depth":"4","parameterNumber":2,"parameterNumberName":"U-component_of_CURRENTS"},"data":[0,0,0,0,0,0,0,0,0,0,0,0,0,0,0,0,0,0,0,0,0,0,0,0,0,0,0,0,0,0,0,0,0,0,0,0,0,0,0,0,0,0,0,0,0,0,0,0,0,0,0,0,0,0,0,0,0,0,0.1348,0.1348,0,0.1416,0.1417,0.1419,0.1427,0.1426,0.1425,0.1424,0.1447,0.1449,0.1451,0,0,0,0,0,0,0,0,0,0,0,0,0,0.1307,0.1307,0.1348,0.1349,0.1349,0.1416,0.1418,0.1419,0.1427,0.1426,0.1425,0.1424,0.1447,0.1449,0.1451,0,0,0,0,0,0,0,0,0,0,0,0,0,0.1348,0.1307,0.1348,0.1359,0.136,0.1416,0.1418,0.1419,0.1427,0.1426,0.1424,0.1423,0.1446,0.1449,0.1451,0.1495,0,0,0.1458,0.1459,0,0,0,0,0,0,0,0,0.1345,0.135,0.1357,0.1358,0.136,0.1409,0.1411,0.1441,0.1428,0.1406,0.1424,0.1422,0.1429,0.1433,0.1455,0.1496,0.1497,0.1458,0.146,0.1461,0.1461,0,0,0,0,0,0,0,0.1342,0.1347,0.1379,0.1357,0.1359,0.1388,0.1392,0.1418,0.1427,0.1407,0.1407,0.141,0.143,0.1452,0.1455,0.1497,0.1458,0.146,0.1462,0.1463,0.1588,0.159,0,0,0,0,0,0,0.1324,0.1344,0.1376,0.138,0.1345,0.1389,0.1394,0.1397,0.1427,0.143,0.1411,0.141,0.1449,0.1452,0.1456,0.1516,0.1461,0.1463,0.1464,0.1586,0.1588,0.1591,0,0,0,0,0,0,0.1323,0.1327,0.1374,0.1361,0.1368,0.1391,0.1395,0.1399,0.1451,0.143,0.1432,0.1461,0.1448,0.1452,0.1487,0.1516,0.1464,0.1466,0.1584,0.1587,0.1589,0.1631,0,0,0,0,0,0,0.1322,0.1326,0.1349,0.136,0.1368,0.1408,0.1396,0.1402,0.1451,0.1451,0.1473,0.1472,0.1447,0.1483,0.1489,0.1518,0.1468,0.1581,0.1585,0.1589,0.1627,0.1635,0.1641,0,0,0,0,0,0.132,0.1341,0.135,0.1355,0.139,0.1409,0.1417,0.143,0.1455,0.1475,0.1489,0.1473,0.151,0.1487,0.1493,0.1523,0.158,0.1584,0.1588,0.1624,0.1633,0.1641,0,0,0,0,0,0,0.1337,0.1344,0.1354,0.1378,0.1395,0.1409,0.1438,0.1462,0.1498,0.1499,0.15,0.1499,0.1538,0.1537,0.1512,0.1572,0.1543,0.1549,0.1568,0.1577,0.1584,0.1582,0.147,0,0,0,0,0,0.1352,0.1368,0.1378,0.1401,0.1413,0.1444,0.1467,0.1468,0.1488,0.1505,0.1539,0.1557,0.1561,0.1573,0.1582,0.1626,0.1634,0.1651,0.1658,0.1664,0.1669,0.1714,0.1726,0.1605,0.1605,0.1605,0,0,0.1363,0.1372,0.1382,0.1407,0.1428,0.1455,0.1455,0.148,0.1506,0.1501,0.158,0.159,0.158,0.1609,0.1628,0.1613,0.1704,0.167,0.1675,0.1676,0.172,0.1732,0.1742,0.1608,0.1607,0.1607,0,0,0.1371,0.1405,0.1414,0.1437,0.1459,0.148,0.1499,0.1542,0.1561,0.1615,0.1615,0.1648,0.1691,0.1682,0.1678,0.1742,0.174,0.1757,0.1792,0.1836,0.1846,0.1855,0.1878,0.1889,0.176,0.1761,0.1761,0,0.139,0.1402,0.1423,0.1442,0.1469,0.1501,0.1525,0.1553,0.1609,0.1629,0.1636,0.1719,0.1716,0.1737,0.1749,0.1756,0.178,0.1753,0.1844,0.1853,0.1862,0.1883,0.1894,0.1763,0.1763,0.1763,0.1762,0,0.1386,0.1423,0.1437,0.1475,0.1511,0.1534,0.1566,0.1617,0.1664,0.1689,0.1746,0.1761,0.1806,0.1814,0.1794,0.1858,0.1854,0.1846,0.1817,0.1876,0.1895,0.1906,0.1767,0.1766,0.1765,0.1764,0,0,0.136,0.1421,0.1432,0.1468,0.1529,0.1556,0.1605,0.165,0.1696,0.1752,0.1816,0.1833,0.1869,0.1869,0.1876,0.191,0.1983,0.1911,0.1912,0.1924,0.2081,0.1944,0.1943,0.1999,0.2002,0.2003,0.207,0,0.1357,0.1405,0.1433,0.1506,0.1545,0.1594,0.1645,0.1689,0.1739,0.1818,0.1828,0.1894,0.1879,0.1919,0.1951,0.1979,0.2015,0.1965,0.203,0.2032,0.1895,0.1951,0.201,0.2078,0.208,0.2082,0.2083,0,0.1343,0.1383,0.1446,0.1535,0.1556,0.1612,0.1708,0.1751,0.1827,0.1863,0.1924,0.1957,0.2019,0.2007,0.2082,0.2058,0.2079,0.2092,0.2094,0.1958,0.1915,0.2009,0.2102,0.2101,0.2099,0.2098,0.2097,0,0.1323,0.1398,0.1458,0.1491,0.1589,0.1633,0.1696,0.1777,0.1814,0.1922,0.1971,0.2039,0.2096,0.2136,0.216,0.2143,0.2235,0.221,0.2103,0.2093,0.2176,0.2166,0.2271,0.2271,0.2271,0.2271,0.2271,0,0.1309,0.1361,0.1465,0.1502,0.1573,0.165,0.1732,0.1791,0.1883,0.1932,0.2015,0.2059,0.2139,0.2188,0.2198,0.2177,0.227,0.2116,0.2105,0.2192,0.2184,0.2184,0.2173,0.2273,0.2273,0.2272,0.2272,0,0.1273,0.1344,0.1417,0.153,0.157,0.1628,0.1743,0.1783,0.1895,0.1968,0.201,0.2103,0.2162,0.2212,0.2279,0.2213,0.2217,0.2189,0.2282,0.2274,0.2035,0.2026,0.207,0.2065,0.2062,0.2059,0.2056,0,0.1251,0.1292,0.1423,0.1459,0.1514,0.161,0.1654,0.1776,0.1814,0.1966,0.1979,0.2089,0.2134,0.2104,0.2179,0.219,0.2164,0.2151,0.2082,0.2031,0.2017,0.2014,0.2009,0.2051,0.205,0.2049,0.2048,0,0.1199,0.1266,0.132,0.1396,0.1462,0.1516,0.16,0.162,0.1751,0.1874,0.1893,0.1924,0.1984,0.201,0.204,0.2044,0.2148,0.2114,0.212,0.2054,0.2009,0.1998,0.1998,0.2036,0.2038,0.2039,0.2039,0,0.1155,0.1174,0.1254,0.1306,0.1371,0.1386,0.1455,0.1496,0.1556,0.172,0.1726,0.1841,0.1952,0.1936,0.1964,0.1958,0.1923,0.1849,0.1868,0.1883,0.1791,0.1704,0.1635,0,0,0,0,0,0.1093,0.1102,0.1145,0.1188,0.1241,0.1282,0.1384,0.1454,0.1595,0.1556,0.1634,0.1677,0.1715,0.1775,0.1731,0.1898,0.194,0.1839,0.1867,0.1968,0.1982,0.1892,0,0,0,0,0,0,0.1052,0.109,0.1108,0.1072,0.1071,0.1117,0.1178,0.1281,0.1268,0.1418,0.144,0.1563,0.1619,0.1707,0.1689,0.1712,0.1693,0.1922,0.1917,0.196,0.1973,0.1984,0.1896,0,0,0,0,0]},{"header":{"parameterUnit":"m.s-1","parameterCategory":2,"la1":30.2991,"la2":30.254,"lo1":-89.0895,"lo2":-89.0444,"dy":0.0017,"dx":0.0017,"nx":28,"ny":28,"refTime":"2023-11-01T09:00:00:Z","depth":"4","parameterNumber":3,"parameterNumberName":"V-component_of_CURRENTS"},"data":[0,0,0,0,0,0,0,0,0,0,0,0,0,0,0,0,0,0,0,0,0,0,0,0,0,0,0,0,0,0,0,0,0,0,0,0,0,0,0,0,0,0,0,0,0,0,0,0,0,0,0,0,0,0,0,0,0,0,0.0339,0.0339,0,0.029,0.0289,0.0287,0.0262,0.0263,0.0264,0.0264,0.0258,0.0257,0.0256,0,0,0,0,0,0,0,0,0,0,0,0,0,0.0349,0.0349,0.0339,0.0339,0.0339,0.029,0.0289,0.0287,0.0262,0.0263,0.0264,0.0265,0.0258,0.0257,0.0256,0,0,0,0,0,0,0,0,0,0,0,0,0,0.032,0.0348,0.0339,0.0326,0.0325,0.029,0.0288,0.0287,0.0262,0.0263,0.0264,0.0265,0.0258,0.0257,0.0256,0.0229,0,0,0.0252,0.0252,0,0,0,0,0,0,0,0,0.0322,0.0319,0.0328,0.0327,0.0326,0.029,0.029,0.0272,0.0262,0.0278,0.0264,0.0266,0.0276,0.0274,0.0251,0.0229,0.0229,0.0252,0.0251,0.0251,0.0251,0,0,0,0,0,0,0,0.0324,0.032,0.0312,0.0328,0.0327,0.0302,0.0298,0.0285,0.0268,0.0277,0.0277,0.0283,0.0275,0.0252,0.0251,0.0228,0.0252,0.0251,0.025,0.025,0.0214,0.0214,0,0,0,0,0,0,0.0346,0.0322,0.0314,0.0312,0.0334,0.0302,0.0298,0.0294,0.0267,0.0265,0.0282,0.0282,0.0254,0.0253,0.0251,0.0266,0.0251,0.025,0.0249,0.0214,0.0214,0.0214,0,0,0,0,0,0,0.0347,0.0346,0.0316,0.0322,0.0318,0.0302,0.0297,0.0293,0.0268,0.0271,0.0269,0.0263,0.0255,0.0253,0.0254,0.0264,0.0249,0.0248,0.0215,0.0214,0.0214,0.0266,0,0,0,0,0,0,0.0347,0.0346,0.0343,0.0324,0.0319,0.0302,0.0297,0.0292,0.0274,0.0273,0.0254,0.0255,0.0255,0.0256,0.0253,0.0262,0.0247,0.0215,0.0214,0.0214,0.0265,0.0267,0.027,0,0,0,0,0,0.0347,0.0346,0.0342,0.0342,0.0317,0.0303,0.0296,0.0284,0.0272,0.0262,0.026,0.0255,0.0251,0.0255,0.0252,0.0261,0.0215,0.0215,0.0214,0.0263,0.0267,0.027,0,0,0,0,0,0,0.0345,0.0343,0.0339,0.0336,0.0325,0.0302,0.0305,0.0277,0.026,0.0275,0.0254,0.0255,0.0259,0.0245,0.025,0.0246,0.023,0.0229,0.0269,0.0272,0.0274,0.028,0.0246,0,0,0,0,0,0.0345,0.0351,0.0337,0.0338,0.0341,0.0315,0.0305,0.0298,0.0287,0.0279,0.0254,0.0246,0.025,0.0251,0.0244,0.0241,0.0208,0.0241,0.0244,0.0246,0.0247,0.0198,0.0196,0.0212,0.0212,0.0212,0,0,0.0359,0.035,0.036,0.034,0.0338,0.033,0.0311,0.0314,0.031,0.0284,0.0266,0.0253,0.025,0.0256,0.0255,0.0249,0.0225,0.0245,0.0248,0.0247,0.0197,0.0195,0.0194,0.0212,0.0212,0.0212,0,0,0.0394,0.0373,0.0399,0.0376,0.0376,0.0353,0.0351,0.0321,0.032,0.0311,0.0293,0.0281,0.027,0.0264,0.0267,0.0272,0.024,0.0268,0.0291,0.0244,0.0243,0.0241,0.0205,0.02,0.0272,0.0272,0.0272,0,0.0403,0.0418,0.0402,0.0401,0.0394,0.0361,0.0372,0.0356,0.0322,0.033,0.0323,0.0287,0.0278,0.0284,0.0292,0.028,0.0249,0.0287,0.0249,0.0246,0.0243,0.0207,0.02,0.0274,0.0274,0.0274,0.0273,0,0.0458,0.045,0.0462,0.0448,0.0433,0.0437,0.0419,0.0404,0.0393,0.0373,0.0374,0.0346,0.0325,0.0318,0.0317,0.0292,0.0276,0.0258,0.0245,0.0245,0.0206,0.0199,0.0278,0.0277,0.0276,0.0275,0,0,0.0521,0.0505,0.0505,0.0499,0.0457,0.0452,0.0459,0.0456,0.0463,0.0429,0.0427,0.0419,0.0383,0.038,0.0351,0.0312,0.027,0.0283,0.0279,0.0255,0.0171,0.0167,0.0158,0.0245,0.0244,0.0243,0.0155,0,0.0568,0.0571,0.0557,0.0553,0.055,0.0517,0.052,0.0511,0.0502,0.0479,0.0461,0.0443,0.0415,0.0404,0.036,0.0291,0.025,0.0296,0.0167,0.0163,0.0166,0.0149,0.0239,0.0149,0.0147,0.0145,0.0144,0,0.0621,0.0611,0.0624,0.06,0.0605,0.0597,0.0594,0.0595,0.0572,0.0572,0.0541,0.0499,0.0445,0.0413,0.0296,0.0326,0.0255,0.0197,0.0192,0.0164,0.0144,0.0144,0.013,0.0131,0.0132,0.0133,0.0134,0,0.0658,0.065,0.0662,0.0645,0.062,0.0645,0.064,0.0628,0.0646,0.0612,0.0604,0.0532,0.0491,0.0392,0.0279,0.0282,0.0142,0.0128,0.0056,0.0055,0.0064,0.0066,0.0037,0.0037,0.0037,0.0037,0.0038,0,0.0677,0.0686,0.0682,0.0676,0.0711,0.0685,0.0722,0.0715,0.0705,0.0713,0.0643,0.0619,0.0481,0.0387,0.0283,0.0149,0.0141,0.0054,0.0028,0.0088,0.0095,0.0059,0.0062,0.0034,0.0035,0.0035,0.0036,0,0.0702,0.0692,0.071,0.0714,0.0724,0.0749,0.0774,0.0796,0.0778,0.0778,0.0767,0.0674,0.055,0.0411,0.0241,0.0158,0.0028,-0.0018,0.0065,0.0045,-0.0028,-0.0021,-0.0111,-0.0112,-0.0113,-0.0113,-0.0114,0,0.071,0.0721,0.0747,0.077,0.0779,0.0812,0.0844,0.0841,0.0855,0.0813,0.0812,0.0696,0.0618,0.0382,0.0233,0.0027,-0.0001,-0.0067,-0.0056,-0.0028,-0.0045,-0.0037,-0.0028,-0.0115,-0.0116,-0.0116,-0.0116,0,0.0738,0.0758,0.0775,0.0823,0.0863,0.0902,0.0936,0.0943,0.0934,0.0912,0.0842,0.0712,0.0567,0.0383,0.022,0.0076,-0.0024,-0.0076,-0.0076,-0.0066,-0.0035,-0.0049,-0.004,-0.0119,-0.0118,-0.0118,-0.0118,0,0.0779,0.0803,0.0837,0.0877,0.0931,0.0975,0.0982,0.0981,0.0984,0.0919,0.0895,0.0735,0.0635,0.0407,0.0262,0.0114,0.0074,0.0029,0.0024,0.0025,0.009,0.0152,0.0097,0,0,0,0,0,0.0812,0.0842,0.0885,0.0933,0.0987,0.102,0.1041,0.1036,0.1008,0.0968,0.0929,0.0793,0.0556,0.0452,0.0302,0.0247,0.0053,0.0066,0.0001,-0.0135,-0.0131,-0.0079,0,0,0,0,0,0,0.0836,0.0885,0.0894,0.0973,0.1016,0.1083,0.1098,0.1078,0.1039,0.0984,0.0859,0.0772,0.0543,0.0656,0.0311,0.0263,0.0201,-0.005,-0.0054,-0.0137,-0.0134,-0.0131,-0.0076,0,0,0,0,0]}]]